Location: Czekanka
(50.4925°N, 19.2643°E)
Time: 02:23:05
(UTC+00:00)

CZ-2C R/B - Pass Details

Date: 20 September 2024
Orbit: 703 x 903 km, 98.2° (Epoch: 09 October)

Event Time Altitude Azimuth Distance (km) Brightness Sun altitude
Rises 00:21:42 0° 16° (NNE) 3,531 7.4 -33.8°
Reaches altitude 10° 00:24:10 10° 20° (NNE) 2,593 6.5 -33.6°
Enters shadow 00:28:58 55° 57° (ENE) 1,085 3.9 -33.2°
